Alturas, CA

6:34 PM PST on December 08, 2019 (GMT -0800)
Alturas Municipal

Weather History for KAAT - October, 2019

Change the Weather History Date:

Tuesday, October 8, 2019

  Actual Average Record
Temperature  
Mean Temperature 50 °F 49 °F  
Max Temperature 71 °F 69 °F 93 °F (1917)
Min Temperature 30 °F 30 °F 15 °F (1968)
Degree Days  
Heating Degree Days 14 16  
Month to date heating degree days 155 116  
Since 1 July heating degree days 461 493  
Cooling Degree Days 0 0  
Month to date cooling degree days 0 0  
Year to date cooling degree days 217 156  
Moisture  
Dew Point 31 °F    
Average Humidity 56    
Maximum Humidity 85    
Minimum Humidity 20    
Precipitation  
Precipitation 0.00 in 0.02 in 0.49 in (1956)
Month to date precipitation 0.03 0.15  
Year to date precipitation 12.26 9.81  
Sea Level Pressure  
Sea Level Pressure 29.93 in    
Wind  
Wind Speed 4 mph ()    
Max Wind Speed 24 mph    
Max Gust Speed 29 mph    
Visibility 10.0 miles    
Events      
T = Trace of Precipitation, MM = Missing Value Source: Averaged Metar Reports

Daily Weather History Graph

Daily Weather History Graph

Search for Another Location

Airport or City:

Astronomy

Oct. 08, 2019 Rise Set
Actual Time 7:06 AM PDT 6:32 PM PDT
Civil Twilight 6:38 AM PDT 7:00 PM PDT
Nautical Twilight 6:06 AM PDT 7:32 PM PDT
Astronomical Twilight 5:34 AM PDT 8:04 PM PDT
Moon 4:38 PM PDT (10/8) 1:55 AM PDT (10/8)
Length of Visible Light 12h 21m
Length of Day
11h 26m
Waxing Gibbous, 78% of the Moon is Illuminated
Oct 8
Waxing Gibbous
Oct 13
Full
Oct 21
Last Quarter
Oct 27
New
Nov 4
First Quarter

Hourly Weather History & Observations

Time (PDT) Temp. Windchill Dew Point Humidity Pressure Visibility Wind Dir Wind Speed Gust Speed Precip Events Conditions
12:55 AM 37.0 °F - 28.9 °F 73% 30.01 in 10.0 mi Calm Calm - N/A   Clear
1:55 AM 37.0 °F - 28.0 °F 70% 30.00 in 10.0 mi Calm Calm - N/A   Clear
2:55 AM 33.1 °F 30.0 °F 27.0 °F 78% 29.99 in 10.0 mi WNW 3.5 mph - N/A   Clear
3:55 AM 33.1 °F - 28.0 °F 82% 29.97 in 10.0 mi Calm Calm - N/A   Clear
4:55 AM 30.9 °F - 27.0 °F 85% 29.98 in 10.0 mi Calm Calm - N/A   Clear
5:55 AM 30.0 °F - 26.1 °F 85% 29.97 in 10.0 mi Calm Calm - N/A   Clear
6:55 AM 30.9 °F 27.5 °F 27.0 °F 85% 29.99 in 10.0 mi NW 3.5 mph - N/A   Clear
7:55 AM 33.1 °F - 28.9 °F 85% 30.01 in 10.0 mi Calm Calm - N/A   Clear
8:55 AM 41.0 °F - 33.1 °F 73% 30.01 in 10.0 mi Calm Calm - N/A   Clear
9:55 AM 51.1 °F - 34.0 °F 52% 30.01 in 10.0 mi Calm Calm - N/A   Clear
10:55 AM 57.0 °F - 35.1 °F 44% 29.98 in 10.0 mi Calm Calm - N/A   Clear
11:55 AM 62.1 °F - 33.1 °F 34% 29.95 in 10.0 mi Variable 3.5 mph - N/A   Clear
12:55 PM 66.9 °F - 28.9 °F 24% 29.91 in 10.0 mi West 11.5 mph 21.9 mph N/A   Clear
1:55 PM 69.1 °F - 27.0 °F 21% 29.87 in 10.0 mi WSW 15.0 mph 21.9 mph N/A   Clear
2:55 PM 70.0 °F - 28.9 °F 22% 29.85 in 10.0 mi WSW 16.1 mph 24.2 mph N/A   Clear
3:55 PM 70.0 °F - 33.1 °F 26% 29.83 in 10.0 mi WSW 15.0 mph 24.2 mph N/A   Clear
4:55 PM 69.1 °F - 32.0 °F 25% 29.81 in 10.0 mi WSW 17.3 mph 27.6 mph N/A   Clear
5:55 PM 66.0 °F - 30.9 °F 27% 29.81 in 10.0 mi WSW 18.4 mph 26.5 mph N/A   Clear
6:55 PM 61.0 °F - 34.0 °F 36% 29.84 in 10.0 mi WNW 10.4 mph - N/A   Clear
7:55 PM 54.0 °F - 37.0 °F 53% 29.87 in 10.0 mi NW 13.8 mph - N/A   Clear
8:55 PM 51.1 °F - 37.0 °F 59% 29.87 in 10.0 mi West 8.1 mph - N/A   Clear
9:55 PM 48.0 °F - 36.0 °F 63% 29.87 in 10.0 mi Variable 5.8 mph 18.4 mph N/A   Clear
10:55 PM 44.1 °F 40.1 °F 34.0 °F 68% 29.91 in 10.0 mi WNW 6.9 mph - N/A   Clear
11:55 PM 42.1 °F 36.6 °F 30.9 °F 65% 29.92 in 10.0 mi West 9.2 mph - N/A   Partly Cloudy